Location: Bluff Heights
(33.7692°N, 118.1592°W)
Time: 10:06:29
(UTC+00:00)

Tiros 1 - Pass Details

Date: 27 July 2021
Orbit: 630 x 663 km, 48.4° (Epoch: 22 September)

Event Time Altitude Azimuth Distance (km) Brightness Sun altitude
Rises 08:07:45 0° 314° (NW) 2,947 11.0 -37.1°
Reaches altitude 10° 08:10:43 10° 333° (NNW) 2,030 10.3 -37.0°
Enters shadow 08:12:43 17° 357° (N) 1,617 9.8 -37.0°
Maximum altitude 08:14:01 19° 18° (NNE) 1,526 - -37.0°
Drops below altitude 10° 08:17:18 10° 63° (ENE) 2,014 - -36.9°
Sets 08:20:14 0° 82° (E) 2,917 - -36.9°
